Regional Weather Roundup
Issued by NWS

Home | Current Version | Previous Version | Text Only | Print | Product List | Glossary On
Versions: 1 2 3 4 5 6 7 8 9 10 11 12 13 14 15 16 17 18 19 20 21 22 23 24 25 26 27 28 29 30 31 32 33 34 35 36 37 38 39 40 41 42 43 44 45 46 47 48 49 50
000
ASUS43 KDTX 171610
RWRMI
MICHIGAN HOURLY REGIONAL WEATHER ROUNDUP
NATIONAL WEATHER SERVICE DETROIT/PONTIAC MI
1100 AM EST FRI NOV 17 2017

NOTE: "FAIR" INDICATES FEW OR NO CLOUDS BELOW 12,000 FEET WITH NO
SIGNIFICANT WEATHER AND/OR OBSTRUCTION TO VISIBILITY.

MIZ047>049-052>055-059>063-066>070-074>076-081>083-171700-
SOUTHEAST LOWER MICHIGAN

CITY           SKY/WX    TMP DP  RH WIND       PRES   REMARKS
ADRIAN         MOSUNNY   38  29  70 S16       30.19F WCI  29
ALMA           CLOUDY    34  31  88 SE6       30.15F WCI  29
ANN ARBOR      PTSUNNY   38  29  70 SE16      30.20R WCI  29
BAD AXE        CLOUDY    33  26  76 S12       30.21F WCI  24
CARO           CLOUDY    33  27  77 E9        30.19F WCI  25
DETROIT CITY   CLOUDY    37  28  70 S7        30.22F WCI  32
DETROIT        CLOUDY    38  30  73 SE8       30.22F WCI  32
FLINT          CLOUDY    37  28  70 S14       30.18F WCI  28
GROSSE ILE     CLOUDY    38  31  77 SE8       30.21F WCI  32
HILLSDALE      PTSUNNY   36  28  75 S17G24    30.15F WCI  25
HOWELL         CLOUDY    37  30  75 S14       30.18R WCI  28

CITY           SKY/WX    TMP DP  RH WIND       PRES   REMARKS
JACKSON        MOSUNNY   38  28  67 SE15G21   30.15F WCI  29
LAMBERTVILLE   PTSUNNY   41  30  64 S7        30.22R
LANSING        CLOUDY    36  29  75 SE16G24   30.15F WCI  26
LAPEER         CLOUDY    35  27  74 S10       30.19F WCI  27
MASON          CLOUDY    38  30  74 SE17G24   30.15F WCI  28
MONROE         CLOUDY    40  29  65 S15       30.20F WCI  31
MT. CLEMENS    CLOUDY    37  30  77 SE10      30.20F WCI  29
PONTIAC        CLOUDY    37  29  72 S9        30.18F WCI  30
PORT HOPE        N/A     34  25  69 VRB3      30.19F
PORT HURON     CLOUDY    34  25  69 S9        30.24R WCI  26
TRI CITIES     CLOUDY    34  29  82 S6        30.18F WCI  29
MIDLAND        FAIR      33  28  79 CALM      30.18R
TROY           PTSUNNY   40  29  66 SE6       30.22F
SAGINAW HB     CLOUDY    34  28  80 SE14      30.15F WCI  24
$$
MIZ043>046-050>051-056>058-064>065-071>073-077>080-171700-
SOUTHWEST LOWER MICHIGAN

CITY           SKY/WX    TMP DP  RH WIND       PRES   REMARKS
BATTLE CREEK   CLOUDY    37  30  75 SE14G23   30.12F WCI  28
BENTON HARBOR  MOSUNNY   39  30  70 SE14G22   30.08F WCI  31
BIG RAPIDS     CLOUDY    34  28  80 S9        30.10F WCI  26
COLDWATER      MOSUNNY   38  30  73 S13G18    30.14F WCI  30
FREMONT        CLOUDY    35  31  86 SE8       30.10S WCI  28
HOLLAND        CLOUDY    38  31  76 SE10      30.10F WCI  31
GRAND RAPIDS   CLOUDY    37  32  82 SE14      30.11F WCI  28
IONIA          FAIR      37  30  77 SE13G20   30.12F WCI  28
KALAMAZOO      CLOUDY    38  29  70 S9        30.12F WCI  31
LUDINGTON      CLOUDY    35  30  82 SE14G20   30.04F WCI  26
MARSHALL       CLOUDY    37  29  74 SE12G22   30.14F WCI  29
MOUNT PLEASANT CLOUDY    33  28  82 SE8       30.14F WCI  26
MUSKEGON       CLOUDY    38  30  73 SE10      30.09F WCI  31
SOUTH HAVEN    CLOUDY    39  32  75 SE10G21   30.08F WCI  32
$$
MIZ016>042-171700-
NORTHERN LOWER MICHIGAN

CITY           SKY/WX    TMP DP  RH WIND       PRES   REMARKS
ALPENA         CLOUDY    33  26  75 SE10      30.16F WCI  25
BEAVER ISLAND  CLOUDY    34  30  85 SE8G23    30.03F WCI  28
BELLAIRE       CLOUDY    32  28  85 SE8G18    30.08F WCI  25
CADILLAC       CLOUDY    33  28  83 S14G21    30.06F WCI  23
CHARLEVOIX     CLOUDY    32  26  78 SE13G18   30.08F WCI  22
FRANKFORT      PTSUNNY   37  29  73 S17G29    30.04F WCI  27
GAYLORD        CLOUDY    27  22  81 SE14G22   30.07F WCI  16
GRAYLING       CLOUDY    30  24  79 SE14      30.11F WCI  19
HARBOR SPRINGS CLOUDY    31  24  76 SE6       30.08F WCI  25
HOUGHTON LAKE  PTSUNNY   30  24  78 SE13      30.13F WCI  20
MANISTEE       CLOUDY    35  29  78 SE14      30.04F WCI  26
OSCODA         CLOUDY    33  24  70 S12       30.18F WCI  24
PELLSTON       CLOUDY    30  24  78 SE14      30.07F WCI  19
ROGERS CITY    CLOUDY    32  25  74 S13G21    30.13F WCI  22
TRAVERSE CITY  CLOUDY    34  26  72 S7        30.06F WCI  28
$$
MIZ007>008-015-171700-
EASTERN UPPER MICHIGAN

CITY           SKY/WX    TMP DP  RH WIND       PRES   REMARKS
KINROSS        CLOUDY    31  26  82 S14G20    30.10F WCI  21
MACKINAC ISLAN CLOUDY    32  24  71 SE10G22   30.08F WCI  24
NEWBERRY       CLOUDY    30  29  96 SE21G26   30.01F WCI  17
S. S. MARIE    CLOUDY    30  24  78 SE9       30.10F WCI  22
MUNISING         N/A     34  32  92 S12G25    29.92F WCI  25
$$
MIZ004>006-011>014-085-171700-
CENTRAL UPPER MICHIGAN

CITY           SKY/WX    TMP DP  RH WIND       PRES   REMARKS
MANISTIQUE     CLOUDY    36  31  83 S15G23    29.98F WCI  27
ESCANABA       CLOUDY    40  36  86 S16G26    29.97F WCI  31
MENOMINEE      CLOUDY    41  37  86 S15G22    29.95F
SAWYER-GWINN   CLOUDY    32  32 100 S18G25    29.89F WCI  20
$$
MIZ001>003-009>011-084-171700-
WESTERN UPPER MICHIGAN

CITY           SKY/WX    TMP DP  RH WIND       PRES   REMARKS
IRON MOUNTAIN  FOG       33  31  92 SE8       29.88F VSB 1/2 WCI  26
HOUGHTON       LGT RAIN  34  30  85 S16G25    29.78F WCI  24
COPPER HARBOR    N/A     37  30  75 SW16G32   29.81F WCI  28
IRONWOOD       CLOUDY   N/A N/A N/A S13G25    29.71
$$

ABBREVIATIONS USED IN REMARKS
   TC - TEMPERATURE IN CELSIUS
  WCI - WIND CHILL INDEX
   HX - HEAT INDEX
  VSB - VISIBILITY





USA.gov is the U.S. government's official web portal to all federal, state and local government web resources and services.